Location: Overspoor
(51.4747°N, 5.6641°E)
Time: 01:07:31
(UTC+02:00)

KKS-1 - Pass Details

Date: 30 June 2022
Orbit: 635 x 648 km, 98.2° (Epoch: 07 August)

Event Time Altitude Azimuth Distance (km) Brightness Sun altitude
Rises 00:31:25 0° 9° (N) 2,980 ? -13.8°
Reaches altitude 10° 00:33:43 10° 3° (N) 2,064 ? -13.9°
Maximum altitude 00:37:57 42° 293° (WNW) 935 ? -14.1°
Drops below altitude 10° 00:42:08 10° 223° (SW) 2,045 ? -14.2°
Enters shadow 00:42:47 - 221° (SW) 2,300 ? -14.3°
